• In United Kingdom
  • List of Countries
  • For 7 days
  • Water Temperature
  • Satellite Maps
  • Weather Map
  • Weather Widgets
  • user-avatar
    Login

    Hourly Weather Ondjiwa

    Today, 23 July, Sunday

    Time Temperature Precipitation Wind Pressure Humidity
    00:00 +16°C° 0 mm 2 mps 668 mmHg 18%
    01:00 +16°C° 0 mm 2 mps 668 mmHg 18%
    02:00 +15°C° 0 mm 2 mps 668 mmHg 18%
    03:00 +15°C° 0 mm 2 mps 668 mmHg 19%
    04:00 +14°C° 0 mm 1 mps 668 mmHg 19%
    05:00 +13°C° 0 mm 1 mps 668 mmHg 20%
    06:00 +13°C° 0 mm 1 mps 668 mmHg 21%
    07:00 +11°C° 0 mm 0 mps 668 mmHg 22%
    08:00 +16°C° 0 mm 1 mps 669 mmHg 19%
    09:00 +21°C° 0 mm 1 mps 670 mmHg 15%
    10:00 +25°C° 0 mm 2 mps 671 mmHg 11%
    11:00 +27°C° 0 mm 2 mps 671 mmHg 10%
    12:00 +29°C° 0 mm 2 mps 671 mmHg 9%
    13:00 +31°C° 0 mm 2 mps 671 mmHg 8%
    14:00 +31°C° 0 mm 1 mps 670 mmHg 8%
    15:00 +31°C° 0 mm 1 mps 670 mmHg 7%
    16:00 +29°C° 0 mm 0 mps 669 mmHg 7%
    17:00 +28°C° 0 mm 1 mps 669 mmHg 9%
    18:00 +25°C° 0 mm 1 mps 669 mmHg 11%
    19:00 +21°C° 0 mm 2 mps 668 mmHg 13%
    20:00 +20°C° 0 mm 2 mps 669 mmHg 13%
    21:00 +19°C° 0 mm 2 mps 669 mmHg 14%
    22:00 +18°C° 0 mm 2 mps 669 mmHg 15%
    23:00 +18°C° 0 mm 2 mps 669 mmHg 15%

    Tomorrow, 24 July, Monday

    Time Temperature Precipitation Wind Pressure Humidity
    00:00 +17°C° 0 mm 2 mps 669 mmHg 16%
    01:00 +17°C° 0 mm 2 mps 669 mmHg 17%
    02:00 +16°C° 0 mm 2 mps 668 mmHg 17%
    03:00 +15°C° 0 mm 2 mps 668 mmHg 18%
    04:00 +15°C° 0 mm 2 mps 668 mmHg 19%
    05:00 +14°C° 0 mm 1 mps 668 mmHg 20%
    06:00 +14°C° 0 mm 1 mps 669 mmHg 21%
    07:00 +13°C° 0 mm 1 mps 669 mmHg 22%
    08:00 +18°C° 0 mm 1 mps 670 mmHg 18%
    09:00 +21°C° 0 mm 2 mps 671 mmHg 14%
    10:00 +26°C° 0 mm 2 mps 672 mmHg 11%
    11:00 +28°C° 0 mm 2 mps 672 mmHg 10%
    12:00 +30°C° 0 mm 2 mps 672 mmHg 9%
    13:00 +32°C° 0 mm 2 mps 671 mmHg 8%
    14:00 +32°C° 0 mm 2 mps 671 mmHg 8%
    15:00 +32°C° 0 mm 1 mps 670 mmHg 8%
    16:00 +32°C° 0 mm 1 mps 670 mmHg 8%
    17:00 +29°C° 0 mm 1 mps 670 mmHg 10%
    18:00 +26°C° 0 mm 2 mps 669 mmHg 11%
    19:00 +23°C° 0 mm 2 mps 669 mmHg 13%
    20:00 +21°C° 0 mm 2 mps 669 mmHg 14%
    21:00 +20°C° 0 mm 2 mps 669 mmHg 15%
    22:00 +19°C° 0 mm 2 mps 670 mmHg 16%
    23:00 +18°C° 0 mm 2 mps 669 mmHg 16%

    Day after tomorrow, 25 July, Tuesday

    Time Temperature Precipitation Wind Pressure Humidity
    00:00 +18°C° 0 mm 2 mps 669 mmHg 17%
    01:00 +17°C° 0 mm 2 mps 669 mmHg 17%
    02:00 +17°C° 0 mm 2 mps 669 mmHg 18%
    03:00 +16°C° 0 mm 2 mps 669 mmHg 19%
    04:00 +16°C° 0 mm 2 mps 668 mmHg 19%
    05:00 +15°C° 0 mm 2 mps 669 mmHg 20%
    06:00 +15°C° 0 mm 2 mps 669 mmHg 22%
    07:00 +14°C° 0 mm 2 mps 670 mmHg 23%
    08:00 +18°C° 0 mm 2 mps 670 mmHg 19%
    09:00 +21°C° 0 mm 3 mps 671 mmHg 16%
    10:00 +26°C° 0 mm 3 mps 672 mmHg 13%
    11:00 +28°C° 0 mm 3 mps 672 mmHg 11%
    12:00 +30°C° 0 mm 2 mps 672 mmHg 10%
    13:00 +32°C° 0 mm 2 mps 671 mmHg 9%
    14:00 +32°C° 0 mm 2 mps 671 mmHg 8%
    15:00 +32°C° 0 mm 2 mps 670 mmHg 8%
    16:00 +32°C° 0 mm 2 mps 669 mmHg 8%
    17:00 +29°C° 0 mm 2 mps 669 mmHg 10%
    18:00 +26°C° 0 mm 2 mps 669 mmHg 12%
    19:00 +22°C° 0 mm 3 mps 669 mmHg 14%
    20:00 +21°C° 0 mm 3 mps 669 mmHg 14%
    21:00 +20°C° 0 mm 3 mps 669 mmHg 15%
    22:00 +19°C° 0 mm 3 mps 669 mmHg 16%
    23:00 +18°C° 0 mm 3 mps 669 mmHg 17%

    26 July, Wednesday

    Time Temperature Precipitation Wind Pressure Humidity
    00:00 +17°C° 0 mm 2 mps 669 mmHg 17%
    01:00 +16°C° 0 mm 2 mps 668 mmHg 18%
    02:00 +16°C° 0 mm 2 mps 668 mmHg 19%
    03:00 +15°C° 0 mm 2 mps 668 mmHg 19%
    04:00 +14°C° 0 mm 2 mps 668 mmHg 20%
    05:00 +14°C° 0 mm 2 mps 668 mmHg 21%
    06:00 +14°C° 0 mm 2 mps 669 mmHg 22%
    07:00 +13°C° 0 mm 2 mps 669 mmHg 24%
    08:00 +17°C° 0 mm 3 mps 670 mmHg 20%
    09:00 +21°C° 0 mm 4 mps 671 mmHg 17%
    10:00 +27°C° 0 mm 5 mps 672 mmHg 14%
    11:00 +28°C° 0 mm 4 mps 671 mmHg 12%
    12:00 +30°C° 0 mm 4 mps 671 mmHg 10%
    13:00 +33°C° 0 mm 4 mps 671 mmHg 8%
    14:00 +33°C° 0 mm 3 mps 670 mmHg 7%
    15:00 +33°C° 0 mm 3 mps 670 mmHg 7%
    16:00 +33°C° 0 mm 3 mps 669 mmHg 7%
    17:00 +29°C° 0 mm 3 mps 669 mmHg 9%
    18:00 +26°C° 0 mm 3 mps 669 mmHg 11%
    19:00 +23°C° 0 mm 2 mps 668 mmHg 13%
    20:00 +21°C° 0 mm 3 mps 669 mmHg 15%
    21:00 +20°C° 0 mm 3 mps 669 mmHg 16%
    22:00 +19°C° 0 mm 3 mps 669 mmHg 18%
    23:00 +18°C° 0 mm 3 mps 669 mmHg 19%

    27 July, Thursday

    Time Temperature Precipitation Wind Pressure Humidity
    00:00 +18°C° 0 mm 3 mps 669 mmHg 20%
    01:00 +17°C° 0 mm 3 mps 669 mmHg 22%
    02:00 +16°C° 0 mm 3 mps 668 mmHg 24%
    03:00 +16°C° 0 mm 3 mps 668 mmHg 27%
    04:00 +14°C° 0 mm 3 mps 668 mmHg 30%
    05:00 +14°C° 0 mm 3 mps 669 mmHg 31%
    06:00 +14°C° 0 mm 3 mps 669 mmHg 33%
    07:00 +13°C° 0 mm 3 mps 670 mmHg 35%
    08:00 +18°C° 0 mm 4 mps 671 mmHg 29%
    09:00 +22°C° 0 mm 5 mps 671 mmHg 24%
    10:00 +27°C° 0 mm 6 mps 672 mmHg 18%
    11:00 +28°C° 0 mm 5 mps 672 mmHg 16%
    12:00 +30°C° 0 mm 4 mps 671 mmHg 14%
    13:00 +32°C° 0 mm 4 mps 671 mmHg 12%
    14:00 +31°C° 0 mm 3 mps 670 mmHg 11%
    15:00 +31°C° 0 mm 3 mps 670 mmHg 11%
    16:00 +32°C° 0 mm 2 mps 669 mmHg 10%
    17:00 +29°C° 0 mm 2 mps 669 mmHg 13%
    18:00 +26°C° 0 mm 2 mps 669 mmHg 15%
    19:00 +23°C° 0 mm 2 mps 669 mmHg 18%
    20:00 +21°C° 0 mm 2 mps 669 mmHg 19%
    21:00 +20°C° 0 mm 3 mps 669 mmHg 21%
    22:00 +19°C° 0 mm 3 mps 669 mmHg 23%
    23:00 +18°C° 0 mm 3 mps 669 mmHg 26%

    28 July, Friday

    Time Temperature Precipitation Wind Pressure Humidity
    00:00 +18°C° 0 mm 3 mps 669 mmHg 29%
    01:00 +17°C° 0 mm 3 mps 669 mmHg 32%
    02:00 +16°C° 0 mm 3 mps 669 mmHg 34%
    03:00 +16°C° 0 mm 3 mps 669 mmHg 36%
    04:00 +14°C° 0 mm 3 mps 668 mmHg 38%
    05:00 +14°C° 0 mm 3 mps 669 mmHg 38%
    06:00 +14°C° 0 mm 3 mps 669 mmHg 38%
    07:00 +13°C° 0 mm 3 mps 670 mmHg 38%
    08:00 +18°C° 0 mm 4 mps 671 mmHg 32%
    09:00 +22°C° 0 mm 5 mps 672 mmHg 25%
    10:00 +26°C° 0 mm 6 mps 672 mmHg 19%
    11:00 +28°C° 0 mm 5 mps 672 mmHg 17%
    12:00 +30°C° 0 mm 5 mps 671 mmHg 15%
    13:00 +32°C° 0 mm 4 mps 671 mmHg 13%
    14:00 +32°C° 0 mm 4 mps 671 mmHg 13%
    15:00 +31°C° 0 mm 3 mps 670 mmHg 12%
    16:00 +33°C° 0 mm 3 mps 670 mmHg 12%
    17:00 +29°C° 0 mm 2 mps 669 mmHg 15%
    18:00 +26°C° 0 mm 2 mps 669 mmHg 17%
    19:00 +23°C° 0 mm 2 mps 669 mmHg 20%
    20:00 +21°C° 0 mm 2 mps 669 mmHg 21%
    21:00 +20°C° 0 mm 2 mps 670 mmHg 22%
    22:00 +19°C° 0 mm 3 mps 670 mmHg 24%
    23:00 +18°C° 0 mm 3 mps 670 mmHg 25%
    Show more